| time (UTC) | temp F | wind direction | speed MPH | gust MPH | rain 1hr in | rain 24hr in | rain mn in | humidity % | barometer mb |
| 20260509181007 | 87 | 131 | 0.0 | 0.0 | 0.00 | 0.13 | 0.00 | 49 | 1016.6 |
| 20260509180505 | 86 | 67 | 0.0 | 0.0 | 0.00 | 0.13 | 0.00 | 50 | 1016.6 |
| 20260509180106 | 86 | 94 | 0.0 | 0.0 | 0.00 | 0.13 | 0.00 | 50 | 1016.8 |
| 20260509175507 | 86 | 138 | 0.0 | 0.0 | 0.00 | 0.13 | 0.00 | 50 | 1017.0 |
| 20260509175003 | 86 | 144 | 0.0 | 0.0 | 0.00 | 0.13 | 0.00 | 49 | 1016.9 |
| 20260509174503 | 86 | 109 | 0.0 | 0.0 | 0.00 | 0.13 | 0.00 | 49 | 1017.1 |
| 20260509174001 | 86 | 182 | 0.0 | 0.0 | 0.00 | 0.13 | 0.00 | 51 | 1017.1 |
| 20260509173504 | 86 | 90 | 0.0 | 0.0 | 0.00 | 0.13 | 0.00 | 51 | 1017.2 |
| 20260509173102 | 85 | 111 | 0.0 | 0.0 | 0.00 | 0.13 | 0.00 | 51 | 1017.2 |
| 20260509172558 | 85 | 124 | 0.0 | 0.0 | 0.00 | 0.13 | 0.00 | 53 | 1017.3 |
| 20260509172059 | 85 | 94 | 0.0 | 0.0 | 0.00 | 0.13 | 0.00 | 52 | 1017.4 |
| 20260509171557 | 85 | 69 | 0.0 | 0.0 | 0.00 | 0.13 | 0.00 | 51 | 1017.5 |
| 20260509171059 | 86 | 86 | 0.0 | 0.0 | 0.00 | 0.13 | 0.00 | 51 | 1017.6 |
| 20260509170556 | 85 | 115 | 0.0 | 0.0 | 0.00 | 0.13 | 0.00 | 52 | 1017.5 |
| 20260509170104 | 85 | 126 | 0.0 | 0.0 | 0.00 | 0.13 | 0.00 | 51 | 1017.6 |
| 20260509165557 | 85 | 134 | 0.0 | 0.0 | 0.00 | 0.13 | 0.00 | 51 | 1017.6 |
| 20260509165056 | 85 | 122 | 0.0 | 0.0 | 0.00 | 0.13 | 0.00 | 51 | 1017.7 |
| 20260509164654 | 85 | 98 | 0.0 | 0.0 | 0.00 | 0.13 | 0.00 | 50 | 1017.6 |
| 20260509164058 | 85 | 108 | 0.0 | 0.0 | 0.00 | 0.13 | 0.00 | 51 | 1017.6 |
| 20260509163555 | 85 | 72 | 0.0 | 0.0 | 0.00 | 0.13 | 0.00 | 50 | 1017.7 |
| 20260509163103 | 86 | 85 | 0.0 | 0.0 | 0.00 | 0.13 | 0.00 | 49 | 1017.7 |
| 20260509162552 | 86 | 104 | 0.0 | 0.0 | 0.00 | 0.13 | 0.00 | 49 | 1017.7 |
| 20260509162051 | 86 | 115 | 0.0 | 0.0 | 0.00 | 0.13 | 0.00 | 49 | 1017.8 |
| 20260509161555 | 86 | 96 | 0.0 | 0.0 | 0.00 | 0.13 | 0.00 | 49 | 1017.8 |
| 20260509161053 | 86 | 161 | 0.0 | 0.0 | 0.00 | 0.13 | 0.00 | 49 | 1017.8 |
| 20260509160549 | 86 | 91 | 0.0 | 0.0 | 0.00 | 0.13 | 0.00 | 50 | 1017.8 |
| 20260509160047 | 85 | 127 | 0.0 | 0.0 | 0.00 | 0.13 | 0.00 | 48 | 1017.8 |
| 20260509155547 | 86 | 107 | 0.0 | 0.0 | 0.00 | 0.13 | 0.00 | 49 | 1017.8 |
| 20260509155049 | 86 | 116 | 0.0 | 0.0 | 0.00 | 0.13 | 0.00 | 51 | 1018.1 |
| 20260509154555 | 85 | 118 | 0.0 | 0.0 | 0.00 | 0.13 | 0.00 | 52 | 1018.2 |
| 20260509154046 | 85 | 55 | 0.0 | 0.0 | 0.00 | 0.13 | 0.00 | 50 | 1018.1 |
| 20260509153545 | 84 | 131 | 0.0 | 0.0 | 0.00 | 0.13 | 0.00 | 51 | 1018.0 |
| 20260509153044 | 84 | 95 | 0.0 | 0.0 | 0.00 | 0.13 | 0.00 | 51 | 1017.9 |
| 20260509152642 | 84 | 148 | 0.0 | 0.0 | 0.00 | 0.13 | 0.00 | 51 | 1017.9 |
| 20260509152041 | 84 | 131 | 0.0 | 0.0 | 0.00 | 0.13 | 0.00 | 51 | 1017.9 |
| 20260509151541 | 85 | 87 | 0.0 | 0.0 | 0.00 | 0.13 | 0.00 | 50 | 1018.0 |
| 20260509151040 | 85 | 112 | 0.0 | 0.0 | 0.00 | 0.13 | 0.00 | 50 | 1018.1 |
| 20260509150539 | 85 | 90 | 0.0 | 0.0 | 0.00 | 0.13 | 0.00 | 50 | 1018.1 |
| 20260509150037 | 85 | 113 | 0.0 | 0.0 | 0.00 | 0.13 | 0.00 | 49 | 1018.1 |
| 20260509145536 | 86 | 86 | 0.0 | 0.0 | 0.00 | 0.13 | 0.00 | 49 | 1018.1 |
| 20260509145035 | 86 | 135 | 0.0 | 0.0 | 0.00 | 0.13 | 0.00 | 50 | 1018.1 |
| 20260509144534 | 85 | 179 | 0.0 | 0.0 | 0.00 | 0.13 | 0.00 | 52 | 1018.1 |
| 20260509144031 | 84 | 80 | 0.0 | 0.0 | 0.00 | 0.13 | 0.00 | 51 | 1018.0 |
| 20260509143534 | 84 | 172 | 0.0 | 0.0 | 0.00 | 0.13 | 0.00 | 53 | 1018.0 |
| 20260509143035 | 84 | 174 | 0.0 | 0.0 | 0.00 | 0.13 | 0.00 | 54 | 1018.1 |
| 20260509142527 | 84 | 131 | 0.0 | 0.0 | 0.00 | 0.13 | 0.00 | 53 | 1018.1 |
| 20260509142028 | 84 | 88 | 0.0 | 0.0 | 0.00 | 0.13 | 0.00 | 54 | 1018.2 |
| 20260509141529 | 84 | 117 | 0.0 | 0.0 | 0.00 | 0.13 | 0.00 | 55 | 1018.2 |
| 20260509141026 | 84 | 93 | 0.0 | 0.0 | 0.00 | 0.13 | 0.00 | 55 | 1018.2 |
| 20260509140526 | 84 | 68 | 0.0 | 0.0 | 0.00 | 0.13 | 0.00 | 54 | 1018.2 |
| 20260509140024 | 84 | 193 | 0.0 | 0.0 | 0.00 | 0.13 | 0.00 | 55 | 1018.1 |
| 20260509135522 | 84 | 116 | 0.0 | 0.0 | 0.00 | 0.13 | 0.00 | 61 | 1018.2 |
| 20260509135022 | 84 | 116 | 0.0 | 0.0 | 0.00 | 0.13 | 0.00 | 61 | 1018.2 |
| 20260509134519 | 83 | 44 | 0.0 | 0.0 | 0.00 | 0.13 | 0.00 | 61 | 1018.1 |
| 20260509134018 | 83 | 157 | 0.0 | 0.0 | 0.00 | 0.13 | 0.00 | 62 | 1018.1 |
| 20260509133521 | 83 | 146 | 0.0 | 0.0 | 0.00 | 0.13 | 0.00 | 62 | 1018.0 |
| 20260509133018 | 83 | 82 | 0.0 | 0.0 | 0.00 | 0.13 | 0.00 | 62 | 1018.0 |
| 20260509132515 | 83 | 127 | 0.0 | 0.0 | 0.00 | 0.13 | 0.00 | 62 | 1018.1 |
| 20260509132014 | 83 | 68 | 0.0 | 0.0 | 0.00 | 0.13 | 0.00 | 62 | 1017.9 |
| 20260509131513 | 83 | 131 | 0.0 | 0.0 | 0.00 | 0.13 | 0.00 | 63 | 1017.9 |
| 20260509131012 | 83 | 53 | 0.0 | 0.0 | 0.00 | 0.13 | 0.00 | 62 | 1017.9 |
| 20260509130518 | 83 | 65 | 0.0 | 0.0 | 0.00 | 0.13 | 0.00 | 63 | 1017.9 |
| 20260509130010 | 83 | 153 | 0.0 | 0.0 | 0.00 | 0.13 | 0.00 | 63 | 1017.9 |
| 20260509125516 | 82 | 140 | 0.0 | 0.0 | 0.00 | 0.13 | 0.00 | 64 | 1017.9 |
| 20260509125007 | 82 | 110 | 0.0 | 0.0 | 0.00 | 0.13 | 0.00 | 64 | 1017.8 |
| 20260509124507 | 82 | 83 | 0.0 | 0.0 | 0.00 | 0.13 | 0.00 | 64 | 1017.8 |
| 20260509124005 | 82 | 141 | 0.0 | 0.0 | 0.00 | 0.13 | 0.00 | 65 | 1017.8 |
| 20260509123503 | 82 | 131 | 0.0 | 0.0 | 0.00 | 0.13 | 0.00 | 66 | 1017.7 |
| 20260509123002 | 82 | 114 | 0.0 | 0.0 | 0.00 | 0.13 | 0.00 | 65 | 1017.6 |
| 20260509122501 | 82 | 174 | 0.0 | 0.0 | 0.00 | 0.13 | 0.00 | 66 | 1017.6 |
| 20260509122100 | 81 | 129 | 0.0 | 0.0 | 0.00 | 0.13 | 0.00 | 66 | 1017.7 |
| 20260509121603 | 81 | 172 | 0.0 | 0.0 | 0.00 | 0.13 | 0.00 | 67 | 1017.6 |
| 20260509121057 | 81 | 120 | 0.0 | 0.0 | 0.00 | 0.13 | 0.00 | 68 | 1017.6 |
| 20260509120554 | 81 | 198 | 0.0 | 0.0 | 0.00 | 0.13 | 0.00 | 68 | 1017.6 |
| 20260509120053 | 80 | 93 | 0.0 | 0.0 | 0.00 | 0.13 | 0.00 | 68 | 1017.6 |
| 20260509115556 | 80 | 139 | 0.0 | 0.0 | 0.00 | 0.13 | 0.00 | 68 | 1017.5 |
| 20260509115050 | 80 | 155 | 0.0 | 0.0 | 0.00 | 0.13 | 0.00 | 68 | 1017.4 |
| 20260509114600 | 79 | 127 | 0.0 | 0.0 | 0.00 | 0.13 | 0.00 | 70 | 1017.5 |
| 20260509114047 | 77 | 281 | 0.0 | 0.0 | 0.00 | 0.13 | 0.00 | 72 | 1017.4 |
| 20260509113545 | 75 | 281 | 0.0 | 0.0 | 0.00 | 0.13 | 0.00 | 73 | 1017.3 |
| 20260509113042 | 74 | 281 | 0.0 | 0.0 | 0.00 | 0.13 | 0.00 | 74 | 1017.3 |
| 20260509112641 | 74 | 281 | 0.0 | 0.0 | 0.00 | 0.13 | 0.00 | 75 | 1017.3 |
| 20260509112043 | 73 | 316 | 0.0 | 0.0 | 0.00 | 0.13 | 0.00 | 75 | 1017.3 |
| 20260509111538 | 73 | 307 | 0.0 | 0.0 | 0.00 | 0.13 | 0.00 | 76 | 1017.2 |
| 20260509111037 | 72 | 300 | 0.0 | 0.0 | 0.00 | 0.13 | 0.00 | 78 | 1017.2 |
| 20260509110536 | 72 | 335 | 0.0 | 0.0 | 0.00 | 0.13 | 0.00 | 79 | 1017.2 |
| 20260509110035 | 71 | 310 | 0.0 | 0.0 | 0.00 | 0.13 | 0.00 | 80 | 1017.2 |
| 20260509105633 | 71 | 304 | 0.0 | 0.0 | 0.00 | 0.13 | 0.00 | 80 | 1017.2 |
| 20260509105032 | 71 | 298 | 0.0 | 0.0 | 0.00 | 0.13 | 0.00 | 81 | 1017.1 |
| 20260509104531 | 71 | 301 | 0.0 | 0.0 | 0.00 | 0.13 | 0.00 | 82 | 1017.0 |
| 20260509104030 | 70 | 301 | 0.0 | 0.0 | 0.00 | 0.13 | 0.00 | 82 | 1016.9 |
| 20260509103528 | 70 | 315 | 0.0 | 0.0 | 0.00 | 0.13 | 0.00 | 82 | 1016.8 |
| 20260509103027 | 0 | 0.0 | 0.0 | 0.00 | 0.13 | 0.00 | 1016.8 | ||
| 20260509102525 | 0 | 0.0 | 0.0 | 0.00 | 0.13 | 0.00 | 1016.8 | ||
| 20260509102023 | 0 | 0.0 | 0.0 | 0.00 | 0.13 | 0.00 | 1016.7 | ||
| 20260509101524 | 0 | 0.0 | 0.0 | 0.00 | 0.13 | 0.00 | 1016.7 | ||
| 20260509101020 | 0 | 0.0 | 0.0 | 0.00 | 0.13 | 0.00 | 1016.6 | ||
| 20260509100518 | 0 | 0.0 | 0.0 | 0.00 | 0.13 | 0.00 | 1016.6 | ||
| 20260509100018 | 0 | 0.0 | 0.0 | 0.00 | 0.13 | 0.00 | 1016.6 | ||
| 20260509095516 | 0 | 0.0 | 0.0 | 0.00 | 0.13 | 0.00 | 1016.5 | ||
| 20260509095014 | 0 | 0.0 | 0.0 | 0.00 | 0.13 | 0.00 | 1016.6 | ||
| 20260509094512 | 0 | 0.0 | 0.0 | 0.00 | 0.13 | 0.00 | 1016.6 | ||
| 20260509094012 | 0 | 0.0 | 0.0 | 0.00 | 0.13 | 0.00 | 1016.5 | ||
| 20260509093509 | 0 | 0.0 | 0.0 | 0.00 | 0.13 | 0.00 | 1016.5 | ||
| 20260509093008 | 0 | 0.0 | 0.0 | 0.00 | 0.13 | 0.00 | 1016.4 | ||
| 20260509092508 | 0 | 0.0 | 0.0 | 0.00 | 0.13 | 0.00 | 1016.4 | ||
| 20260509092004 | 0 | 0.0 | 0.0 | 0.00 | 0.13 | 0.00 | 1016.4 | ||
| 20260509091503 | 0 | 0.0 | 0.0 | 0.00 | 0.13 | 0.00 | 1016.3 | ||
| 20260509091105 | 0 | 0.0 | 0.0 | 0.00 | 0.13 | 0.00 | 1016.2 | ||
| 20260509090601 | 0 | 0.0 | 0.0 | 0.00 | 0.13 | 0.00 | 1016.2 | ||
| 20260509090123 | 0 | 0.0 | 0.0 | 0.00 | 0.13 | 0.00 | 1016.1 | ||
| 20260509085559 | 0 | 0.0 | 0.0 | 0.00 | 0.13 | 0.00 | 1016.2 | ||
| 20260509085059 | 0 | 0.0 | 0.0 | 0.00 | 0.13 | 0.00 | 1016.1 | ||
| 20260509084553 | 0 | 0.0 | 0.0 | 0.00 | 0.13 | 0.00 | 1016.0 | ||
| 20260509084052 | 0 | 0.0 | 0.0 | 0.00 | 0.13 | 0.00 | 1016.0 | ||
| 20260509083550 | 0 | 309 | 0.0 | 0.0 | 0.00 | 0.13 | 0.00 | 1016.0 | |
| 20260509083053 | 0 | 309 | 0.0 | 0.0 | 0.00 | 0.13 | 0.00 | 1016.0 | |
| 20260509082547 | 70 | 306 | 0.0 | 0.0 | 0.00 | 0.13 | 0.00 | 81 | 1016.0 |
| 20260509082046 | 70 | 306 | 0.0 | 0.0 | 0.00 | 0.13 | 0.00 | 81 | 1016.0 |
| 20260509081545 | 70 | 306 | 0.0 | 0.0 | 0.00 | 0.13 | 0.00 | 82 | 1016.0 |
| 20260509081044 | 70 | 306 | 0.0 | 0.0 | 0.00 | 0.13 | 0.00 | 81 | 1016.0 |
| 20260509080545 | 70 | 306 | 0.0 | 0.0 | 0.00 | 0.13 | 0.00 | 81 | 1016.0 |
| 20260509075543 | 70 | 306 | 0.0 | 0.0 | 0.00 | 0.13 | 0.00 | 81 | 1015.9 |
| 20260509075047 | 70 | 306 | 0.0 | 0.0 | 0.00 | 0.13 | 0.00 | 81 | 1016.0 |
| 20260509074541 | 70 | 306 | 0.0 | 0.0 | 0.00 | 0.13 | 0.00 | 81 | 1016.0 |
| 20260509074043 | 70 | 304 | 0.0 | 0.0 | 0.00 | 0.13 | 0.00 | 81 | 1015.9 |
| 20260509073539 | 70 | 328 | 0.0 | 0.0 | 0.00 | 0.13 | 0.00 | 81 | 1016.0 |
| 20260509073037 | 70 | 333 | 0.0 | 0.0 | 0.00 | 0.13 | 0.00 | 81 | 1016.1 |
| 20260509072537 | 70 | 327 | 0.0 | 0.0 | 0.00 | 0.13 | 0.00 | 81 | 1016.1 |
| 20260509072036 | 71 | 324 | 0.0 | 0.0 | 0.00 | 0.13 | 0.00 | 81 | 1016.1 |
| 20260509071535 | 71 | 326 | 0.0 | 0.0 | 0.00 | 0.13 | 0.00 | 81 | 1016.1 |
| 20260509071033 | 71 | 299 | 0.0 | 0.0 | 0.00 | 0.13 | 0.00 | 81 | 1016.1 |
| 20260509070533 | 71 | 299 | 0.0 | 0.0 | 0.00 | 0.13 | 0.00 | 81 | 1016.1 |
| 20260509070038 | 71 | 311 | 0.0 | 0.0 | 0.00 | 0.13 | 0.00 | 81 | 1016.0 |
| 20260509065530 | 71 | 312 | 0.0 | 0.0 | 0.00 | 0.13 | 0.00 | 81 | 1016.0 |
| 20260509065030 | 71 | 354 | 0.0 | 0.0 | 0.00 | 0.13 | 0.00 | 81 | 1016.0 |
| 20260509064529 | 71 | 330 | 0.0 | 0.0 | 0.00 | 0.13 | 0.00 | 81 | 1016.1 |
| 20260509064031 | 71 | 314 | 0.0 | 0.0 | 0.00 | 0.13 | 0.00 | 81 | 1016.2 |
| 20260509063527 | 70 | 321 | 0.0 | 0.0 | 0.00 | 0.13 | 0.00 | 81 | 1016.1 |
| 20260509063025 | 70 | 324 | 0.0 | 0.0 | 0.00 | 0.13 | 0.00 | 81 | 1016.2 |
| 20260509062525 | 70 | 322 | 0.0 | 0.0 | 0.00 | 0.13 | 0.00 | 81 | 1016.3 |
| 20260509062024 | 70 | 316 | 0.0 | 0.0 | 0.00 | 0.13 | 0.00 | 81 | 1016.2 |
| 20260509061523 | 71 | 342 | 0.0 | 0.0 | 0.00 | 0.13 | 0.00 | 81 | 1016.3 |
| 20260509061022 | 70 | 334 | 0.0 | 0.0 | 0.00 | 0.13 | 0.00 | 81 | 1016.3 |
| 20260509060520 | 71 | 337 | 0.0 | 0.0 | 0.00 | 0.13 | 0.00 | 81 | 1016.3 |
| 20260509060023 | 70 | 335 | 0.0 | 0.0 | 0.00 | 0.13 | 0.00 | 82 | 1016.3 |
| 20260509055519 | 70 | 332 | 0.0 | 0.0 | 0.00 | 0.13 | 0.00 | 81 | 1016.3 |
| 20260509055018 | 70 | 316 | 0.0 | 0.0 | 0.00 | 0.13 | 0.00 | 81 | 1016.3 |
| 20260509054517 | 70 | 334 | 0.0 | 0.0 | 0.00 | 0.13 | 0.00 | 81 | 1016.4 |
| 20260509054016 | 71 | 307 | 0.0 | 0.0 | 0.00 | 0.13 | 0.00 | 81 | 1016.3 |
| 20260509053514 | 71 | 310 | 0.0 | 0.0 | 0.00 | 0.13 | 0.00 | 81 | 1016.4 |
| 20260509053021 | 71 | 333 | 0.0 | 0.0 | 0.00 | 0.13 | 0.00 | 82 | 1016.5 |
| 20260509052513 | 71 | 356 | 0.0 | 0.0 | 0.00 | 0.13 | 0.00 | 81 | 1016.5 |
| 20260509052010 | 71 | 8 | 0.0 | 0.0 | 0.00 | 0.13 | 0.00 | 81 | 1016.6 |
| 20260509051510 | 71 | 308 | 0.0 | 0.0 | 0.00 | 0.13 | 0.00 | 82 | 1016.7 |
| 20260509051008 | 71 | 304 | 0.0 | 0.0 | 0.00 | 0.13 | 0.00 | 82 | 1016.7 |
| 20260509050509 | 71 | 320 | 0.0 | 0.0 | 0.00 | 0.13 | 0.00 | 81 | 1016.8 |
| 20260509050020 | 71 | 318 | 0.0 | 0.0 | 0.00 | 0.13 | 0.00 | 82 | 1016.8 |
| 20260509045505 | 71 | 318 | 0.0 | 0.0 | 0.00 | 0.13 | 0.00 | 82 | 1016.8 |
| 20260509045004 | 72 | 321 | 0.0 | 0.0 | 0.00 | 0.13 | 0.00 | 82 | 1016.8 |
| 20260509044504 | 72 | 320 | 0.0 | 0.0 | 0.00 | 0.13 | 0.00 | 81 | 1016.8 |
| 20260509044001 | 72 | 320 | 0.0 | 0.0 | 0.00 | 0.13 | 0.00 | 81 | 1017.0 |
| 20260509043604 | 72 | 319 | 0.0 | 0.0 | 0.00 | 0.13 | 0.00 | 81 | 1017.0 |
| 20260509043104 | 72 | 319 | 0.0 | 0.0 | 0.00 | 0.13 | 0.00 | 81 | 1017.0 |
| 20260509042558 | 72 | 266 | 0.0 | 0.0 | 0.00 | 0.13 | 0.00 | 81 | 1017.1 |
| 20260509042056 | 73 | 264 | 0.0 | 0.0 | 0.00 | 0.13 | 0.00 | 81 | 1017.2 |
| 20260509041555 | 73 | 259 | 0.0 | 0.0 | 0.00 | 0.13 | 0.00 | 81 | 1017.3 |
| 20260509041055 | 73 | 255 | 0.0 | 0.0 | 0.00 | 0.13 | 0.00 | 81 | 1017.3 |
| 20260509040556 | 73 | 255 | 0.0 | 0.0 | 0.00 | 0.13 | 0.00 | 81 | 1017.3 |
| 20260509040052 | 73 | 255 | 0.0 | 0.0 | 0.00 | 0.13 | 0.00 | 81 | 1017.3 |
| 20260509035551 | 73 | 254 | 0.0 | 0.0 | 0.00 | 0.13 | 0.13 | 81 | 1017.4 |
| 20260509035051 | 74 | 248 | 0.0 | 0.0 | 0.00 | 0.13 | 0.13 | 81 | 1017.4 |
| 20260509034556 | 74 | 248 | 0.0 | 0.0 | 0.00 | 0.13 | 0.13 | 81 | 1017.5 |
| 20260509034049 | 74 | 248 | 0.0 | 0.0 | 0.00 | 0.13 | 0.13 | 81 | 1017.5 |
| 20260509033549 | 73 | 248 | 0.0 | 0.0 | 0.00 | 0.13 | 0.13 | 80 | 1017.4 |
| 20260509033103 | 73 | 248 | 0.0 | 0.0 | 0.00 | 0.13 | 0.13 | 79 | 1017.5 |
| 20260509032550 | 73 | 248 | 0.0 | 0.0 | 0.00 | 0.13 | 0.13 | 78 | 1017.5 |
| 20260509032050 | 73 | 248 | 0.0 | 0.0 | 0.00 | 0.13 | 0.13 | 76 | 1017.5 |
| 20260509031548 | 74 | 248 | 0.0 | 0.0 | 0.00 | 0.13 | 0.13 | 76 | 1017.5 |
| 20260509031047 | 74 | 248 | 0.0 | 0.0 | 0.08 | 0.13 | 0.13 | 75 | 1017.5 |
| 20260509030547 | 74 | 244 | 0.0 | 0.0 | 0.13 | 0.13 | 0.13 | 75 | 1017.6 |
| 20260509030048 | 74 | 244 | 0.0 | 0.0 | 0.13 | 0.13 | 0.13 | 74 | 1017.7 |
| 20260509025546 | 74 | 244 | 0.0 | 0.0 | 0.13 | 0.13 | 0.13 | 73 | 1017.6 |
| 20260509025048 | 75 | 244 | 0.0 | 0.0 | 0.13 | 0.13 | 0.13 | 72 | 1017.6 |
| 20260509024557 | 75 | 244 | 0.0 | 0.0 | 0.13 | 0.13 | 0.13 | 71 | 1017.6 |
| 20260509024047 | 75 | 244 | 0.0 | 0.0 | 0.13 | 0.13 | 0.13 | 71 | 1017.6 |
| 20260509023545 | 75 | 251 | 0.0 | 0.0 | 0.13 | 0.13 | 0.13 | 70 | 1017.6 |
| 20260509023046 | 75 | 236 | 0.0 | 0.0 | 0.13 | 0.13 | 0.13 | 70 | 1017.7 |
| 20260509022545 | 75 | 152 | 0.0 | 0.0 | 0.13 | 0.13 | 0.13 | 69 | 1017.7 |
| 20260509022044 | 75 | 130 | 0.0 | 0.0 | 0.13 | 0.13 | 0.13 | 68 | 1017.7 |
| 20260509021544 | 75 | 118 | 0.0 | 0.0 | 0.13 | 0.13 | 0.13 | 68 | 1017.7 |
| 20260509021046 | 76 | 98 | 0.0 | 0.0 | 0.05 | 0.05 | 0.05 | 67 | 1017.9 |
| 20260509020542 | 76 | 131 | 0.0 | 0.0 | 0.00 | 0.00 | 0.00 | 66 | 1017.7 |
| 20260509020046 | 76 | 86 | 0.0 | 0.0 | 0.00 | 0.00 | 0.00 | 66 | 1017.6 |
| 20260509015542 | 76 | 131 | 0.0 | 0.0 | 0.00 | 0.00 | 0.00 | 65 | 1017.6 |
| 20260509015043 | 76 | 132 | 0.0 | 0.0 | 0.00 | 0.00 | 0.00 | 66 | 1017.5 |
| 20260509014540 | 76 | 172 | 0.0 | 0.0 | 0.00 | 0.00 | 0.00 | 66 | 1017.4 |
| 20260509014039 | 76 | 200 | 0.0 | 0.0 | 0.00 | 0.00 | 0.00 | 65 | 1017.3 |
| 20260509013540 | 76 | 182 | 0.0 | 0.0 | 0.00 | 0.00 | 0.00 | 65 | 1017.4 |
| 20260509013046 | 76 | 211 | 0.0 | 0.0 | 0.00 | 0.00 | 0.00 | 65 | 1017.4 |
| 20260509012539 | 76 | 312 | 0.0 | 0.0 | 0.00 | 0.00 | 0.00 | 66 | 1017.3 |
| 20260509012042 | 76 | 312 | 0.0 | 0.0 | 0.00 | 0.00 | 0.00 | 66 | 1017.3 |
| 20260509011539 | 75 | 312 | 0.0 | 0.0 | 0.00 | 0.00 | 0.00 | 65 | 1017.3 |
| 20260509011040 | 75 | 312 | 0.0 | 0.0 | 0.00 | 0.00 | 0.00 | 65 | 1017.4 |
| 20260509010539 | 75 | 312 | 0.0 | 0.0 | 0.00 | 0.00 | 0.00 | 65 | 1017.2 |
| 20260509010039 | 76 | 308 | 0.0 | 0.0 | 0.00 | 0.00 | 0.00 | 64 | 1017.3 |
| 20260509005539 | 77 | 264 | 0.0 | 0.0 | 0.00 | 0.00 | 0.00 | 65 | 1017.2 |
| 20260509005038 | 77 | 212 | 0.0 | 0.0 | 0.00 | 0.00 | 0.00 | 64 | 1017.2 |
| 20260509004552 | 77 | 212 | 0.0 | 0.0 | 0.00 | 0.00 | 0.00 | 65 | 1017.0 |
| 20260509004043 | 78 | 176 | 0.0 | 0.0 | 0.00 | 0.00 | 0.00 | 64 | 1017.0 |
| 20260509003538 | 78 | 200 | 0.0 | 0.0 | 0.00 | 0.00 | 0.00 | 65 | 1017.0 |
| 20260509003041 | 78 | 234 | 0.0 | 0.0 | 0.00 | 0.00 | 0.00 | 64 | 1016.9 |
| 20260509002539 | 78 | 201 | 0.0 | 0.0 | 0.00 | 0.00 | 0.00 | 64 | 1016.8 |
| 20260509002036 | 78 | 206 | 0.0 | 0.0 | 0.00 | 0.00 | 0.00 | 64 | 1016.7 |
| 20260509001537 | 78 | 148 | 0.0 | 0.0 | 0.00 | 0.00 | 0.00 | 64 | 1016.6 |
| 20260509001037 | 78 | 205 | 0.0 | 0.0 | 0.00 | 0.00 | 0.00 | 64 | 1016.5 |
| 20260509000539 | 78 | 205 | 0.0 | 0.0 | 0.00 | 0.00 | 0.00 | 64 | 1016.4 |
| 20260509000043 | 78 | 207 | 0.0 | 0.0 | 0.00 | 0.00 | 0.00 | 64 | 1016.4 |
| 20260508235536 | 78 | 195 | 0.0 | 0.0 | 0.00 | 0.00 | 0.00 | 64 | 1016.2 |
| 20260508235037 | 78 | 229 | 0.0 | 0.0 | 0.00 | 0.00 | 0.00 | 63 | 1016.2 |
| 20260508234537 | 78 | 176 | 0.0 | 0.0 | 0.00 | 0.00 | 0.00 | 63 | 1016.2 |
| 20260508234036 | 78 | 122 | 0.0 | 0.0 | 0.00 | 0.00 | 0.00 | 63 | 1016.1 |
| 20260508233536 | 78 | 117 | 0.0 | 0.0 | 0.00 | 0.00 | 0.00 | 63 | 1016.1 |
| 20260508233036 | 78 | 165 | 0.0 | 0.0 | 0.00 | 0.00 | 0.00 | 62 | 1016.0 |
| 20260508232536 | 79 | 137 | 0.0 | 0.0 | 0.00 | 0.00 | 0.00 | 62 | 1016.0 |
| 20260508232035 | 79 | 105 | 0.0 | 0.0 | 0.00 | 0.00 | 0.00 | 62 | 1015.9 |
| 20260508231544 | 79 | 115 | 0.0 | 0.0 | 0.00 | 0.00 | 0.00 | 62 | 1016.0 |
| 20260508231035 | 79 | 122 | 0.0 | 0.0 | 0.00 | 0.00 | 0.00 | 62 | 1015.8 |
| 20260508230534 | 79 | 92 | 0.0 | 0.0 | 0.00 | 0.00 | 0.00 | 62 | 1015.8 |
| 20260508230034 | 79 | 133 | 0.0 | 0.0 | 0.00 | 0.00 | 0.00 | 61 | 1015.7 |
| 20260508225534 | 80 | 138 | 0.0 | 0.0 | 0.00 | 0.00 | 0.00 | 61 | 1015.6 |
| 20260508225034 | 80 | 150 | 0.0 | 0.0 | 0.00 | 0.00 | 0.00 | 61 | 1015.6 |
| 20260508224555 | 80 | 135 | 0.0 | 0.0 | 0.00 | 0.00 | 0.00 | 60 | 1015.5 |
| 20260508224033 | 80 | 108 | 0.0 | 0.0 | 0.00 | 0.00 | 0.00 | 59 | 1015.3 |
| 20260508223535 | 80 | 131 | 0.0 | 0.0 | 0.00 | 0.00 | 0.00 | 59 | 1015.2 |
| 20260508223033 | 81 | 169 | 0.0 | 0.0 | 0.00 | 0.00 | 0.00 | 58 | 1015.2 |
| 20260508222533 | 81 | 146 | 0.0 | 0.0 | 0.00 | 0.00 | 0.00 | 57 | 1015.2 |
| 20260508222032 | 82 | 134 | 0.0 | 0.0 | 0.00 | 0.00 | 0.00 | 56 | 1015.2 |
| 20260508221535 | 82 | 118 | 0.0 | 0.0 | 0.00 | 0.00 | 0.00 | 55 | 1015.1 |
| 20260508221031 | 82 | 122 | 0.0 | 0.0 | 0.00 | 0.00 | 0.00 | 55 | 1015.0 |
| 20260508220533 | 83 | 113 | 0.0 | 0.0 | 0.00 | 0.00 | 0.00 | 55 | 1015.0 |
| 20260508220034 | 83 | 116 | 0.0 | 0.0 | 0.00 | 0.00 | 0.00 | 55 | 1015.0 |
| 20260508215529 | 83 | 131 | 0.0 | 0.0 | 0.00 | 0.00 | 0.00 | 56 | 1014.9 |
| 20260508215029 | 83 | 134 | 0.0 | 0.0 | 0.00 | 0.00 | 0.00 | 55 | 1014.9 |
| 20260508214538 | 83 | 65 | 0.0 | 0.0 | 0.00 | 0.00 | 0.00 | 55 | 1014.9 |
| 20260508214028 | 83 | 114 | 0.0 | 0.0 | 0.00 | 0.00 | 0.00 | 56 | 1014.7 |
| 20260508213528 | 84 | 130 | 0.0 | 0.0 | 0.00 | 0.00 | 0.00 | 56 | 1014.8 |
| 20260508213032 | 84 | 95 | 0.0 | 0.0 | 0.00 | 0.00 | 0.00 | 57 | 1014.8 |
| 20260508212526 | 84 | 166 | 0.0 | 0.0 | 0.00 | 0.00 | 0.00 | 57 | 1014.7 |
| 20260508212025 | 84 | 143 | 0.0 | 0.0 | 0.00 | 0.00 | 0.00 | 57 | 1014.7 |
| 20260508211525 | 84 | 122 | 0.0 | 0.0 | 0.00 | 0.00 | 0.00 | 56 | 1014.7 |
| 20260508211023 | 84 | 148 | 0.0 | 0.0 | 0.00 | 0.00 | 0.00 | 57 | 1014.7 |
| 20260508210523 | 85 | 162 | 0.0 | 0.0 | 0.00 | 0.00 | 0.00 | 57 | 1014.6 |
| 20260508210023 | 85 | 201 | 0.0 | 0.0 | 0.00 | 0.00 | 0.00 | 56 | 1014.6 |
| 20260508205522 | 85 | 158 | 0.0 | 0.0 | 0.00 | 0.00 | 0.00 | 57 | 1014.6 |
| 20260508205022 | 85 | 205 | 0.0 | 0.0 | 0.00 | 0.00 | 0.00 | 57 | 1014.6 |
| 20260508204523 | 85 | 192 | 0.0 | 0.0 | 0.00 | 0.00 | 0.00 | 56 | 1014.6 |
| 20260508204021 | 85 | 251 | 0.0 | 0.0 | 0.00 | 0.00 | 0.00 | 56 | 1014.6 |
| 20260508203524 | 85 | 158 | 0.0 | 0.0 | 0.00 | 0.00 | 0.00 | 56 | 1014.6 |
| 20260508203022 | 85 | 211 | 0.0 | 0.0 | 0.00 | 0.00 | 0.00 | 55 | 1014.6 |
| 20260508202522 | 86 | 198 | 0.0 | 0.0 | 0.00 | 0.00 | 0.00 | 54 | 1014.6 |
| 20260508202020 | 87 | 149 | 0.0 | 0.0 | 0.00 | 0.00 | 0.00 | 54 | 1014.6 |
| 20260508201520 | 86 | 127 | 0.0 | 0.0 | 0.00 | 0.00 | 0.00 | 55 | 1014.6 |
| 20260508201022 | 87 | 155 | 0.0 | 0.0 | 0.00 | 0.00 | 0.00 | 54 | 1014.6 |
| 20260508200519 | 86 | 117 | 0.0 | 0.0 | 0.00 | 0.00 | 0.00 | 55 | 1014.7 |
| 20260508200030 | 86 | 215 | 0.0 | 0.0 | 0.00 | 0.00 | 0.00 | 54 | 1014.7 |
| 20260508195517 | 87 | 147 | 0.0 | 0.0 | 0.00 | 0.00 | 0.00 | 53 | 1014.6 |
| 20260508195019 | 87 | 195 | 0.0 | 0.0 | 0.00 | 0.00 | 0.00 | 53 | 1014.7 |
| 20260508194516 | 86 | 128 | 0.0 | 0.0 | 0.00 | 0.00 | 0.00 | 53 | 1014.8 |
| 20260508194016 | 86 | 127 | 0.0 | 0.0 | 0.00 | 0.00 | 0.00 | 54 | 1014.9 |
| 20260508193515 | 86 | 204 | 0.0 | 0.0 | 0.00 | 0.00 | 0.00 | 53 | 1014.9 |
| 20260508193014 | 87 | 221 | 0.0 | 0.0 | 0.00 | 0.00 | 0.00 | 53 | 1014.9 |
| 20260508192520 | 87 | 134 | 0.0 | 0.0 | 0.00 | 0.00 | 0.00 | 52 | 1015.1 |
| 20260508192015 | 87 | 153 | 0.0 | 0.0 | 0.00 | 0.00 | 0.00 | 52 | 1015.1 |
| 20260508191511 | 87 | 171 | 0.0 | 0.0 | 0.00 | 0.00 | 0.00 | 51 | 1015.1 |
| 20260508191010 | 87 | 122 | 0.0 | 0.0 | 0.00 | 0.00 | 0.00 | 51 | 1015.1 |
| 20260508190514 | 87 | 127 | 0.0 | 0.0 | 0.00 | 0.00 | 0.00 | 51 | 1015.1 |
| 20260508190016 | 87 | 127 | 0.0 | 0.0 | 0.00 | 0.00 | 0.00 | 50 | 1015.2 |
| 20260508185509 | 87 | 126 | 0.0 | 0.0 | 0.00 | 0.00 | 0.00 | 50 | 1015.3 |
| 20260508185008 | 88 | 145 | 0.0 | 0.0 | 0.00 | 0.00 | 0.00 | 50 | 1015.2 |
| 20260508184513 | 87 | 160 | 0.0 | 0.0 | 0.00 | 0.00 | 0.00 | 51 | 1015.3 |
| 20260508184006 | 87 | 124 | 0.0 | 0.0 | 0.00 | 0.00 | 0.00 | 51 | 1015.3 |
| 20260508183506 | 87 | 148 | 0.0 | 0.0 | 0.00 | 0.00 | 0.00 | 50 | 1015.4 |
| 20260508183005 | 88 | 208 | 0.0 | 0.0 | 0.00 | 0.00 | 0.00 | 51 | 1015.4 |
| 20260508182505 | 87 | 188 | 0.0 | 0.0 | 0.00 | 0.00 | 0.00 | 51 | 1015.5 |
| 20260508182003 | 87 | 233 | 0.0 | 0.0 | 0.00 | 0.00 | 0.00 | 51 | 1015.6 |
| 20260508181614 | 87 | 148 | 0.0 | 0.0 | 0.00 | 0.00 | 0.00 | 52 | 1015.5 |